sat.trackr.live / text

‹ back to catalog

STARLINK-35330

NORAD 65791 · 2025-218A

PAYLOAD ACTIVE UNKNOWN

§ Identity

Operator
Country
US
Launch date
2025-09-26
Launch site
AFWTR
Launch vehicle
Mass (kg)
RCS (m²)

Purposes: comms

External: N2YO · Heavens-Above · Gunter

§ Orbital elements

Epoch: 2026-05-25T02:31:19.285248Z

Period
95.64 min
Inclination
97.4536°
Eccentricity
0.0001150
Mean motion
15.05659189 rev/d
Perigee alt
548.7 km
Apogee alt
550.3 km
Semi-major
6,927.6 km
B*
2.1158e-4
RAAN
7.8278°
Arg perigee
71.7180°
Mean anomaly
288.4173°
Rev number
3,646

§ Raw data

STARLINK-353301 65791U 25218A   26145.10508432  .00002996  00000+0  21158-3 0  99922 65791  97.4536   7.8278 0001150  71.7180 288.4173 15.05659189 36468

JSON: /api/v1/satellites/65791 · /tle

For live sub-satellite position, see the globe view (requires WebGL).

§ Visibility from observer

Set your observer location to see the next 7 days of passes ≥ 10°. The values pass through the URL so the page stays shareable.

No JS? Fill the form by hand. The geolocation button needs JavaScript.